星链-35655(STARLINK-35655)

导读

STARLINK-35655是美国太空探索技术公司SpaceX星链星座的卫星,于2025年11月15日发射升空。星链项目旨在构建全球卫星互联网星座,该卫星加入后将进一步扩充星座规模,提升全球范围内低延迟宽带互联网覆盖能力,服务地面通信、海事、航空等多领域用户。

Basic Information
目录编号:
66470
目录名称:
STARLINK-35655
国际标识:
2025-262Q
轨道中心:
EARTH
卫星名称:
星链-35655
卫星全名:
星链-35655(STARLINK-35655)
卫星状态:
在轨 (已飞行294 天)
发射日期:
2025-11-15 UTC
国别 :
美国 (US)
星等 :
--
Orbit Information
数据来源 国际轨道数据
星历时间: 2026-09-05T16:39:56+0800
8小时前
查看轨道信息
半长轴: 6861.169km
偏心率: 0.0001532
轨道倾角: 43.005°
近地点辐角 275.021°
升交点赤经 1.582°
平近点角 85.047°
近地点: 481.98km
远地点: 484.084km
周期: 94.266分钟
每日圈数: 15.275858
Detailed Information
固有亮度:
5
最大亮度:
2.5
卫星平台:
Starlink V1.0
覆盖范围:
全球
运营商:
太空探索技术公司
运营商所在国:
美国
制造商(研发单位):
太空探索技术公司
制造商所在国:
美国
使用方式:
暂无
Satellite Introduction
Starlink 计划是 SpaceX 推出的全球卫星互联网项目,通过发射低轨道卫星,为全球尤其是偏远地区提供高速、低延迟的互联网服务。自 2019 年起,Starlink 已部署数千颗卫星,旨在缩小全球数字鸿沟,推动互联网普及。该项目还为军事、航空等行业提供通信支持,带来广泛经济效益。
2D Orbit Map
3D Orbit Map
Orbit Altitude Analysis Chart
Orbit Inclination Analysis Chart
Orbit Comprehensive Analysis Chart
View Comprehensive Chart
Conjunction Data List
Event ID Objects TCA Miss Dist (km) Collision Risk Probability Collision Risk Index (CRI) Action
CDM_260907-071806-647006-783321
2026-09-07T
07:18:13+0000
0.363 km
远距离
1.626532E-4 高风险 0.79
CDM_260907-190806-647006-717621
2026-09-07T
19:08:36+0000
0.915 km
远距离
7.536708E-6 低风险 0.53
CDM_260908-020005-638306-647021
2026-09-08T
02:00:19+0000
1.834 km
极远距离
2.408841E-6 低风险 0.43
CDM_260907-093906-647006-783321
2026-09-07T
09:39:27+0000
2.272 km
极远距离
7.868573E-7 极低风险 0.33